time, Switch, Flow(0), Analog(2)
yyyy/mm/dd HH:MM:SS.fff, True=FILTERED|False=TOTAL, L/min, V
2023/07/06 07:00:02.935, True, 4.646, 0.153201
2023/07/06 07:00:03.431, True, 4.712, 0.152972
2023/07/06 07:00:03.935, True, 4.311, 0.153582
2023/07/06 07:00:04.439, True, 2.653, 0.152514
2023/07/06 07:00:04.935, True, 1.348, 0.152514
2023/07/06 07:00:05.439, True, 0.995, 0.153277
2023/07/06 07:00:05.943, True, 0.664, 0.155489
2023/07/06 07:00:06.439, True, 1.010, 0.151751
2023/07/06 07:00:06.943, True, 0.663, 0.151446
2023/07/06 07:00:07.447, True, 0.995, 0.154192
2023/07/06 07:00:07.942, True, 0.674, 0.152590
2023/07/06 07:00:08.447, True, 0.663, 0.151369
2023/07/06 07:00:08.951, True, 0.663, 0.154345
2023/07/06 07:00:09.447, True, 1.011, 0.150301
2023/07/06 07:00:09.951, True, 0.663, 0.152819
2023/07/06 07:00:10.455, True, 0.663, 0.153735
2023/07/06 07:00:10.951, True, 0.674, 0.151598
2023/07/06 07:00:11.455, True, 0.995, 0.151369
2023/07/06 07:00:11.959, True, 0.663, 0.153658
2023/07/06 07:00:12.455, True, 0.674, 0.152819
2023/07/06 07:00:12.959, True, 0.995, 0.154345
2023/07/06 07:00:13.463, True, 0.663, 0.154345
2023/07/06 07:00:13.959, True, 0.674, 0.152056
2023/07/06 07:00:14.463, True, 0.997, 0.151064
2023/07/06 07:00:14.967, True, 0.662, 0.154421
2023/07/06 07:00:15.463, True, 0.674, 0.152514
2023/07/06 07:00:15.967, True, 0.663, 0.152209
2023/07/06 07:00:16.471, True, 0.664, 0.152361
2023/07/06 07:00:16.974, True, 0.663, 0.153124
2023/07/06 07:00:17.471, True, 0.674, 0.152209
2023/07/06 07:00:17.975, True, 0.995, 0.152285
2023/07/06 07:00:18.479, True, 0.663, 0.152438
2023/07/06 07:00:18.974, True, 0.674, 0.152590
2023/07/06 07:00:19.479, True, 0.663, 0.151141
2023/07/06 07:00:19.982, True, 0.997, 0.152438
2023/07/06 07:00:20.478, True, 0.674, 0.152972
2023/07/06 07:00:20.982, True, 0.662, 0.154269
2023/07/06 07:00:21.487, True, 0.663, 0.153582
2023/07/06 07:00:21.982, True, 1.011, 0.152361
2023/07/06 07:00:22.487, True, 0.663, 0.151446
2023/07/06 07:00:22.991, True, 0.663, 0.153506
2023/07/06 07:00:23.487, True, 1.011, 0.153658
2023/07/06 07:00:23.991, True, 0.663, 0.154498
2023/07/06 07:00:24.495, True, 0.663, 0.152285
2023/07/06 07:00:24.991, True, 0.674, 0.154345
2023/07/06 07:00:25.495, True, 0.663, 0.152209
2023/07/06 07:00:25.991, True, 1.010, 0.150607
2023/07/06 07:00:26.495, True, 0.663, 0.152743
2023/07/06 07:00:26.999, True, 0.663, 0.154269
2023/07/06 07:00:27.495, True, 0.674, 0.154955
2023/07/06 07:00:27.998, True, 0.662, 0.152209
2023/07/06 07:00:28.503, True, 0.996, 0.153353
2023/07/06 07:00:28.999, True, 0.674, 0.153811
2023/07/06 07:00:29.502, True, 0.663, 0.153887
2023/07/06 07:00:30.007, True, 0.664, 0.153964
2023/07/06 07:00:30.503, True, 1.011, 0.155184
2023/07/06 07:00:31.007, True, 0.664, 0.153124
2023/07/06 07:00:31.511, True, 0.662, 0.152361
2023/07/06 07:00:32.007, True, 0.675, 0.152590
2023/07/06 07:00:32.511, True, 0.995, 0.152972
2023/07/06 07:00:33.015, True, 0.662, 0.152972
2023/07/06 07:00:33.511, True, 0.674, 0.151751
2023/07/06 07:00:34.015, True, 0.663, 0.153582
2023/07/06 07:00:34.519, True, 0.664, 0.153353
2023/07/06 07:00:35.015, True, 1.010, 0.151369
2023/07/06 07:00:35.519, True, 0.663, 0.152361
2023/07/06 07:00:36.023, True, 0.664, 0.153658
2023/07/06 07:00:36.519, True, 0.673, 0.154269
2023/07/06 07:00:37.023, True, 0.995, 0.153964
2023/07/06 07:00:37.527, True, 0.664, 0.152743
2023/07/06 07:00:38.023, True, 0.673, 0.152514
2023/07/06 07:00:38.527, True, 0.663, 0.152132
2023/07/06 07:00:39.031, True, 0.663, 0.153124
2023/07/06 07:00:39.527, True, 1.011, 0.153429
2023/07/06 07:00:40.030, True, 0.663, 0.154421
2023/07/06 07:00:40.535, True, 0.663, 0.152514
2023/07/06 07:00:41.031, True, 0.675, 0.153124
2023/07/06 07:00:41.535, True, 0.663, 0.155489
2023/07/06 07:00:42.039, True, 0.996, 0.154498
2023/07/06 07:00:42.535, True, 0.673, 0.153353
2023/07/06 07:00:43.039, True, 0.663, 0.153887
2023/07/06 07:00:43.543, True, 0.995, 0.151904
2023/07/06 07:00:44.039, True, 0.674, 0.154345
2023/07/06 07:00:44.543, True, 0.663, 0.153429
2023/07/06 07:00:45.047, True, 0.663, 0.152361
2023/07/06 07:00:45.543, True, 0.674, 0.152285
2023/07/06 07:00:46.047, True, 0.995, 0.151904
2023/07/06 07:00:46.551, True, 0.664, 0.153964
2023/07/06 07:00:47.047, True, 0.674, 0.153506
2023/07/06 07:00:47.551, True, 0.663, 0.152819
2023/07/06 07:00:48.054, True, 0.995, 0.153201
2023/07/06 07:00:48.551, True, 0.674, 0.151293
2023/07/06 07:00:49.055, True, 0.663, 0.152819
2023/07/06 07:00:49.551, True, 0.674, 0.154726
2023/07/06 07:00:50.055, True, 0.995, 0.152667
2023/07/06 07:00:50.559, True, 0.663, 0.151827
2023/07/06 07:00:51.055, True, 0.674, 0.153429
2023/07/06 07:00:51.559, True, 0.663, 0.152361
2023/07/06 07:00:52.063, True, 0.995, 0.154421
2023/07/06 07:00:52.559, True, 0.674, 0.154192
2023/07/06 07:00:53.063, True, 0.663, 0.151369
2023/07/06 07:00:53.566, True, 0.664, 0.153506
2023/07/06 07:00:54.063, True, 0.673, 0.152667
2023/07/06 07:00:54.567, True, 0.995, 0.153429
2023/07/06 07:00:55.071, True, 0.663, 0.155795
2023/07/06 07:00:55.566, True, 0.674, 0.154345
2023/07/06 07:00:56.071, True, 0.663, 0.151675
2023/07/06 07:00:56.567, True, 0.674, 0.153048
2023/07/06 07:00:57.071, True, 0.995, 0.152285
2023/07/06 07:00:57.575, True, 0.663, 0.152514
2023/07/06 07:00:58.071, True, 0.674, 0.150225
2023/07/06 07:00:58.575, True, 0.995, 0.149233
2023/07/06 07:00:59.079, True, 0.663, 0.150378
2023/07/06 07:00:59.583, True, 0.663, 0.151217
2023/07/06 07:01:00.079, True, 0.674, 0.153353
2023/07/06 07:01:00.583, True, 0.663, 0.152361
2023/07/06 07:01:01.087, True, 0.664, 0.154498
2023/07/06 07:01:01.582, True, 0.673, 0.154574
2023/07/06 07:01:02.086, True, 0.663, 0.156481
2023/07/06 07:01:02.591, True, 0.995, 0.152514
2023/07/06 07:01:03.087, True, 0.674, 0.153201
2023/07/06 07:01:03.591, True, 0.663, 0.153277
2023/07/06 07:01:04.095, True, 0.663, 0.151980
2023/07/06 07:01:04.598, True, 0.995, 0.152895
2023/07/06 07:01:05.095, True, 0.674, 0.152438
2023/07/06 07:01:05.599, True, 0.663, 0.155184
2023/07/06 07:01:06.095, True, 0.674, 0.151827
2023/07/06 07:01:06.599, True, 0.663, 0.151446
2023/07/06 07:01:07.103, True, 0.995, 0.153811
2023/07/06 07:01:07.607, True, 0.663, 0.156710
2023/07/06 07:01:08.103, True, 0.674, 0.152972
2023/07/06 07:01:08.607, True, 0.663, 0.152056
2023/07/06 07:01:09.110, True, 0.664, 0.152285
2023/07/06 07:01:09.606, True, 0.674, 0.153658
2023/07/06 07:01:10.111, True, 0.993, 0.152972
2023/07/06 07:01:10.615, True, 0.663, 0.152972
2023/07/06 07:01:11.111, True, 0.674, 0.153506
2023/07/06 07:01:11.615, True, 0.995, 0.151827
2023/07/06 07:01:12.119, True, 0.664, 0.153429
2023/07/06 07:01:12.615, True, 0.673, 0.153582
2023/07/06 07:01:13.119, True, 0.663, 0.151675
2023/07/06 07:01:13.622, True, 0.663, 0.155032
2023/07/06 07:01:14.119, True, 0.674, 0.152361
2023/07/06 07:01:14.623, True, 0.663, 0.154192
2023/07/06 07:01:15.127, True, 0.663, 0.155489
2023/07/06 07:01:15.623, True, 0.674, 0.155032
2023/07/06 07:01:16.127, True, 0.997, 0.154345
2023/07/06 07:01:16.631, True, 0.662, 0.154345
2023/07/06 07:01:17.127, True, 0.674, 0.153582
2023/07/06 07:01:17.631, True, 0.663, 0.152361
2023/07/06 07:01:18.135, True, 0.995, 0.151446
2023/07/06 07:01:18.639, True, 0.663, 0.155032
2023/07/06 07:01:19.135, True, 0.674, 0.154574
2023/07/06 07:01:19.639, True, 0.663, 0.155871
2023/07/06 07:01:20.143, True, 0.663, 0.155566
2023/07/06 07:01:20.639, True, 0.674, 0.153964
2023/07/06 07:01:21.143, True, 0.995, 0.156252
2023/07/06 07:01:21.647, True, 0.663, 0.155337
2023/07/06 07:01:22.142, True, 0.674, 0.152056
2023/07/06 07:01:22.647, True, 0.664, 0.155108
2023/07/06 07:01:23.143, True, 0.673, 0.156023
2023/07/06 07:01:23.647, True, 0.663, 0.156863
2023/07/06 07:01:24.151, True, 0.664, 0.155184
2023/07/06 07:01:24.655, True, 0.662, 0.155108
2023/07/06 07:01:25.151, True, 0.674, 0.154726
2023/07/06 07:01:25.655, True, 0.995, 0.154879
2023/07/06 07:01:26.159, True, 0.663, 0.155795
2023/07/06 07:01:26.655, True, 0.674, 0.153735
2023/07/06 07:01:27.159, True, 0.663, 0.155718
2023/07/06 07:01:27.663, True, 0.663, 0.155108
2023/07/06 07:01:28.159, True, 1.011, 0.156023
2023/07/06 07:01:28.663, True, 0.663, 0.155489
2023/07/06 07:01:29.167, True, 0.663, 0.154650
2023/07/06 07:01:29.663, True, 0.674, 0.158312
2023/07/06 07:01:30.167, True, 0.663, 0.156634
2023/07/06 07:01:30.671, True, 0.663, 0.158694
2023/07/06 07:01:31.167, True, 0.674, 0.158236
2023/07/06 07:01:31.671, True, 0.995, 0.156481
2023/07/06 07:01:32.175, True, 0.663, 0.157778
2023/07/06 07:01:32.671, True, 0.674, 0.157397
2023/07/06 07:01:33.175, True, 0.663, 0.159152
2023/07/06 07:01:33.679, True, 0.663, 0.157702
2023/07/06 07:01:34.175, True, 0.674, 0.157168
2023/07/06 07:01:34.679, True, 0.663, 0.156252
2023/07/06 07:01:35.183, True, 0.995, 0.157855
2023/07/06 07:01:35.679, True, 0.674, 0.157321
2023/07/06 07:01:36.183, True, 0.663, 0.157626
2023/07/06 07:01:36.687, True, 0.663, 0.159991
2023/07/06 07:01:37.183, True, 0.674, 0.157855
2023/07/06 07:01:37.687, True, 0.663, 0.156405
2023/07/06 07:01:38.191, True, 0.995, 0.156558
2023/07/06 07:01:38.687, True, 0.674, 0.156634
2023/07/06 07:01:39.191, True, 0.663, 0.157168
2023/07/06 07:01:39.695, True, 0.663, 0.158999
2023/07/06 07:01:40.191, True, 0.674, 0.159075
2023/07/06 07:01:40.695, True, 0.663, 0.158389
2023/07/06 07:01:41.199, True, 0.995, 0.158846
2023/07/06 07:01:41.695, True, 0.674, 0.156786
2023/07/06 07:01:42.199, True, 0.663, 0.158236
2023/07/06 07:01:42.703, True, 0.663, 0.156405
2023/07/06 07:01:43.199, True, 0.674, 0.158007
2023/07/06 07:01:43.703, True, 0.663, 0.158083
2023/07/06 07:01:44.199, True, 0.674, 0.156634
2023/07/06 07:01:44.703, True, 0.663, 0.157702
2023/07/06 07:01:45.207, True, 0.663, 0.161288
2023/07/06 07:01:45.703, True, 0.674, 0.160754
2023/07/06 07:01:46.207, True, 0.663, 0.158923
2023/07/06 07:01:46.711, True, 0.996, 0.160525
2023/07/06 07:01:47.207, True, 0.673, 0.159457
2023/07/06 07:01:47.711, True, 0.665, 0.160525
2023/07/06 07:01:48.215, True, 0.662, 0.160830
2023/07/06 07:01:48.711, True, 0.674, 0.159838
2023/07/06 07:01:49.215, True, 0.995, 0.161746
2023/07/06 07:01:49.719, True, 0.663, 0.159762
2023/07/06 07:01:50.214, True, 0.674, 0.160754
2023/07/06 07:01:50.719, True, 0.663, 0.164263
2023/07/06 07:01:51.223, True, 0.663, 0.158770
2023/07/06 07:01:51.719, True, 0.674, 0.158999
2023/07/06 07:01:52.223, True, 0.995, 0.160372
2023/07/06 07:01:52.727, True, 0.664, 0.159686
2023/07/06 07:01:53.223, True, 0.673, 0.158694
2023/07/06 07:01:53.727, True, 0.663, 0.159609
2023/07/06 07:01:54.231, True, 0.663, 0.159686
2023/07/06 07:01:54.727, True, 1.011, 0.159380
2023/07/06 07:01:55.231, True, 0.663, 0.158770
2023/07/06 07:01:55.735, True, 0.663, 0.160754
2023/07/06 07:01:56.231, True, 0.674, 0.160372
2023/07/06 07:01:56.735, True, 0.663, 0.161059
2023/07/06 07:01:57.238, True, 0.663, 0.159609
2023/07/06 07:01:57.735, True, 0.674, 0.160983
2023/07/06 07:01:58.239, True, 0.996, 0.160220
2023/07/06 07:01:58.742, True, 0.662, 0.161517
2023/07/06 07:01:59.247, True, 0.664, 0.159304
2023/07/06 07:01:59.742, True, 0.674, 0.158923
2023/07/06 07:02:00.247, True, 0.664, 0.160372
2023/07/06 07:02:00.751, True, 0.995, 0.161288
2023/07/06 07:02:01.247, True, 0.674, 0.160601
2023/07/06 07:02:01.750, True, 0.664, 0.159838
2023/07/06 07:02:02.254, True, 0.662, 0.162432
2023/07/06 07:02:02.751, True, 0.675, 0.157855
2023/07/06 07:02:03.255, True, 0.662, 0.158846
2023/07/06 07:02:03.759, True, 0.663, 0.159380
2023/07/06 07:02:04.255, True, 1.011, 0.160143
2023/07/06 07:02:04.759, True, 0.663, 0.161669
2023/07/06 07:02:05.263, True, 0.663, 0.161669
2023/07/06 07:02:05.759, True, 0.674, 0.163729
2023/07/06 07:02:06.263, True, 0.663, 0.160601
2023/07/06 07:02:06.767, True, 0.995, 0.158389
2023/07/06 07:02:07.262, True, 0.674, 0.161822
2023/07/06 07:02:07.767, True, 0.663, 0.160983
2023/07/06 07:02:08.271, True, 0.664, 0.160449
2023/07/06 07:02:08.775, True, 0.663, 0.160143
2023/07/06 07:02:09.271, True, 0.674, 0.161440
2023/07/06 07:02:09.775, True, 0.663, 0.161898
2023/07/06 07:02:10.279, True, 0.995, 0.158999
2023/07/06 07:02:10.775, True, 0.674, 0.162127
2023/07/06 07:02:11.279, True, 0.664, 0.159686
2023/07/06 07:02:11.775, True, 0.673, 0.161517
2023/07/06 07:02:12.279, True, 0.663, 0.161593
2023/07/06 07:02:12.783, True, 0.663, 0.162432
2023/07/06 07:02:13.279, True, 0.674, 0.160983
2023/07/06 07:02:13.782, True, 0.995, 0.160906
2023/07/06 07:02:14.287, True, 0.663, 0.161212
2023/07/06 07:02:14.783, True, 0.674, 0.160372
2023/07/06 07:02:15.287, True, 0.663, 0.161669
2023/07/06 07:02:15.791, True, 0.663, 0.160220
2023/07/06 07:02:16.287, True, 0.674, 0.159609
2023/07/06 07:02:16.791, True, 0.995, 0.160525
2023/07/06 07:02:17.295, True, 0.663, 0.158083
2023/07/06 07:02:17.791, True, 0.674, 0.161364
2023/07/06 07:02:18.295, True, 0.663, 0.160754
2023/07/06 07:02:18.799, True, 0.663, 0.160754
2023/07/06 07:02:19.295, True, 0.674, 0.160449
2023/07/06 07:02:19.799, True, 0.663, 0.159838
2023/07/06 07:02:20.303, True, 0.663, 0.160067
2023/07/06 07:02:20.799, True, 1.011, 0.161059
2023/07/06 07:02:21.303, True, 0.663, 0.160143
2023/07/06 07:02:21.807, True, 0.663, 0.161135
2023/07/06 07:02:22.303, True, 0.674, 0.161517
2023/07/06 07:02:22.807, True, 0.996, 0.161669
2023/07/06 07:02:23.311, True, 0.662, 0.163882
2023/07/06 07:02:23.807, True, 0.674, 0.161975
2023/07/06 07:02:24.311, True, 0.663, 0.161135
2023/07/06 07:02:24.815, True, 0.664, 0.161135
2023/07/06 07:02:25.311, True, 0.674, 0.162051
2023/07/06 07:02:25.815, True, 0.663, 0.160220
2023/07/06 07:02:26.319, True, 0.663, 0.161975
2023/07/06 07:02:26.815, True, 1.011, 0.163729
2023/07/06 07:02:27.319, True, 0.663, 0.162280
2023/07/06 07:02:27.823, True, 0.663, 0.161059
2023/07/06 07:02:28.319, True, 0.674, 0.162890
2023/07/06 07:02:28.823, True, 0.663, 0.162127
2023/07/06 07:02:29.327, True, 0.663, 0.162280
2023/07/06 07:02:29.823, True, 1.011, 0.162509
2023/07/06 07:02:30.327, True, 0.663, 0.161212
2023/07/06 07:02:30.831, True, 0.663, 0.163653
2023/07/06 07:02:31.327, True, 0.674, 0.161593
2023/07/06 07:02:31.831, True, 0.663, 0.161517
2023/07/06 07:02:32.335, True, 0.663, 0.163348
2023/07/06 07:02:32.831, True, 0.675, 0.162432
2023/07/06 07:02:33.335, True, 0.662, 0.162966
2023/07/06 07:02:33.839, True, 0.995, 0.161822
2023/07/06 07:02:34.343, True, 0.663, 0.159915
2023/07/06 07:02:34.839, True, 0.674, 0.159915
2023/07/06 07:02:35.343, True, 0.663, 0.160067
2023/07/06 07:02:35.847, True, 0.995, 0.164034
2023/07/06 07:02:36.342, True, 0.674, 0.162432
2023/07/06 07:02:36.847, True, 0.663, 0.160906
2023/07/06 07:02:37.351, True, 0.663, 0.161593
2023/07/06 07:02:37.847, True, 0.674, 0.160296
2023/07/06 07:02:38.351, True, 0.664, 0.162203
2023/07/06 07:02:38.855, True, 0.662, 0.161212
2023/07/06 07:02:39.359, True, 0.663, 0.161746
2023/07/06 07:02:39.855, True, 0.674, 0.161517
2023/07/06 07:02:40.359, True, 0.995, 0.160372
2023/07/06 07:02:40.855, True, 0.674, 0.162127
2023/07/06 07:02:41.359, True, 0.663, 0.160830
2023/07/06 07:02:41.863, True, 0.663, 0.161822
2023/07/06 07:02:42.359, True, 0.674, 0.160601
2023/07/06 07:02:42.863, True, 0.663, 0.161059
2023/07/06 07:02:43.367, True, 0.664, 0.161898
2023/07/06 07:02:43.863, True, 0.673, 0.160983
2023/07/06 07:02:44.367, True, 0.663, 0.161288
2023/07/06 07:02:44.871, True, 0.663, 0.160983
2023/07/06 07:02:45.367, True, 1.011, 0.163577
2023/07/06 07:02:45.871, True, 0.663, 0.161898
2023/07/06 07:02:46.375, True, 0.663, 0.162432
2023/07/06 07:02:46.879, True, 0.663, 0.161898
2023/07/06 07:02:47.375, True, 0.674, 0.163577
2023/07/06 07:02:47.879, True, 0.995, 0.161975
2023/07/06 07:02:48.383, True, 0.663, 0.161212
2023/07/06 07:02:48.879, True, 0.674, 0.162051
2023/07/06 07:02:49.383, True, 0.663, 0.161440
2023/07/06 07:02:49.887, True, 0.664, 0.161364
2023/07/06 07:02:50.383, True, 0.673, 0.161898
2023/07/06 07:02:50.887, True, 0.663, 0.162585
2023/07/06 07:02:51.391, True, 0.995, 0.160830
2023/07/06 07:02:51.887, True, 0.674, 0.161059
2023/07/06 07:02:52.391, True, 0.664, 0.162051
2023/07/06 07:02:52.895, True, 0.663, 0.160830
2023/07/06 07:02:53.399, True, 0.663, 0.161517
2023/07/06 07:02:53.895, True, 0.674, 0.160143
2023/07/06 07:02:54.399, True, 0.663, 0.160296
2023/07/06 07:02:54.903, True, 0.663, 0.159762
2023/07/06 07:02:55.399, True, 0.675, 0.162966
2023/07/06 07:02:55.903, True, 0.662, 0.160983
2023/07/06 07:02:56.407, True, 0.995, 0.159991
2023/07/06 07:02:56.903, True, 0.674, 0.159991
2023/07/06 07:02:57.407, True, 0.664, 0.159991
2023/07/06 07:02:57.911, True, 0.663, 0.161440
2023/07/06 07:02:58.407, True, 0.674, 0.160906
2023/07/06 07:02:58.911, True, 0.662, 0.160906
2023/07/06 07:02:59.415, True, 0.663, 0.160372
2023/07/06 07:02:59.911, True, 0.674, 0.159380
2023/07/06 07:03:00.415, True, 0.663, 0.159609
2023/07/06 07:03:00.919, True, 0.663, 0.161593
2023/07/06 07:03:01.415, True, 1.011, 0.162356
2023/07/06 07:03:01.919, True, 0.663, 0.160830
2023/07/06 07:03:02.422, True, 0.663, 0.161440
2023/07/06 07:03:02.927, True, 0.664, 0.160678
2023/07/06 07:03:03.422, True, 0.673, 0.160983
2023/07/06 07:03:03.927, True, 0.995, 0.160678
2023/07/06 07:03:04.431, True, 0.663, 0.158694
2023/07/06 07:03:04.927, True, 0.674, 0.161746
2023/07/06 07:03:05.431, True, 0.664, 0.162432
2023/07/06 07:03:05.935, True, 0.662, 0.161746
2023/07/06 07:03:06.431, True, 0.674, 0.162661
2023/07/06 07:03:06.935, True, 0.995, 0.162966
2023/07/06 07:03:07.439, True, 0.663, 0.162737
2023/07/06 07:03:07.935, True, 0.674, 0.160983
2023/07/06 07:03:08.439, True, 0.663, 0.161669
2023/07/06 07:03:08.935, True, 0.674, 0.161364
2023/07/06 07:03:09.439, True, 0.663, 0.161364
2023/07/06 07:03:09.942, True, 0.663, 0.161212
2023/07/06 07:03:10.439, True, 0.674, 0.160906
2023/07/06 07:03:10.943, True, 0.995, 0.163500
2023/07/06 07:03:11.447, True, 0.664, 0.160525
2023/07/06 07:03:11.943, True, 0.673, 0.162814
2023/07/06 07:03:12.447, True, 0.663, 0.161669
2023/07/06 07:03:12.951, True, 0.663, 0.161593
2023/07/06 07:03:13.455, True, 0.663, 0.159762
2023/07/06 07:03:13.951, True, 0.674, 0.160983
2023/07/06 07:03:14.455, True, 0.663, 0.162432
2023/07/06 07:03:14.959, True, 0.994, 0.159686
2023/07/06 07:03:15.455, True, 0.674, 0.158999
2023/07/06 07:03:15.959, True, 0.664, 0.159915
2023/07/06 07:03:16.462, True, 0.663, 0.161212
2023/07/06 07:03:16.959, True, 0.674, 0.158312
2023/07/06 07:03:17.463, True, 0.664, 0.161364
2023/07/06 07:03:17.967, True, 0.663, 0.160983
2023/07/06 07:03:18.463, True, 0.674, 0.161288
2023/07/06 07:03:18.967, True, 0.664, 0.160525
2023/07/06 07:03:19.471, True, 0.662, 0.160983
2023/07/06 07:03:19.967, True, 1.012, 0.158999
2023/07/06 07:03:20.471, True, 0.664, 0.158846
2023/07/06 07:03:20.975, True, 0.662, 0.161135
2023/07/06 07:03:21.471, True, 0.675, 0.161364
2023/07/06 07:03:21.975, True, 0.663, 0.160372
2023/07/06 07:03:22.479, True, 0.662, 0.160372
2023/07/06 07:03:22.975, True, 0.674, 0.159533
2023/07/06 07:03:23.478, True, 0.663, 0.162203
2023/07/06 07:03:23.982, True, 0.663, 0.160449
2023/07/06 07:03:24.479, True, 1.011, 0.158999
2023/07/06 07:03:24.982, True, 0.664, 0.159152
2023/07/06 07:03:25.486, True, 0.662, 0.161822
2023/07/06 07:03:25.983, True, 0.674, 0.161822
2023/07/06 07:03:26.487, True, 0.664, 0.161135
2023/07/06 07:03:26.991, True, 0.662, 0.160678
2023/07/06 07:03:27.486, True, 1.011, 0.160601
2023/07/06 07:03:27.991, True, 0.663, 0.158694
2023/07/06 07:03:28.494, True, 0.664, 0.159762
2023/07/06 07:03:28.991, True, 0.673, 0.160830
2023/07/06 07:03:29.495, True, 0.663, 0.160296
2023/07/06 07:03:29.999, True, 0.664, 0.159915
2023/07/06 07:03:30.503, True, 0.663, 0.160601
2023/07/06 07:03:30.999, True, 0.673, 0.161212
2023/07/06 07:03:31.503, True, 0.664, 0.160525
2023/07/06 07:03:32.007, True, 0.663, 0.161288
2023/07/06 07:03:32.503, True, 1.012, 0.162356
2023/07/06 07:03:33.007, True, 0.663, 0.158236
2023/07/06 07:03:33.511, True, 0.663, 0.159609
2023/07/06 07:03:34.015, True, 0.663, 0.160067
2023/07/06 07:03:34.511, True, 0.675, 0.160220
2023/07/06 07:03:35.015, True, 0.663, 0.160906
2023/07/06 07:03:35.519, True, 0.662, 0.161059
2023/07/06 07:03:36.015, True, 0.675, 0.160601
2023/07/06 07:03:36.519, True, 0.662, 0.159380
2023/07/06 07:03:37.022, True, 0.995, 0.160220
2023/07/06 07:03:37.519, True, 0.674, 0.160449
2023/07/06 07:03:38.023, True, 0.663, 0.160754
2023/07/06 07:03:38.519, True, 0.675, 0.160678
2023/07/06 07:03:39.023, True, 0.663, 0.159304
2023/07/06 07:03:39.527, True, 0.994, 0.161364
2023/07/06 07:03:40.031, True, 0.663, 0.159304
2023/07/06 07:03:40.527, True, 0.674, 0.160143
2023/07/06 07:03:41.031, True, 0.663, 0.162509
2023/07/06 07:03:41.535, True, 0.663, 0.159991
2023/07/06 07:03:42.031, True, 0.674, 0.158770
2023/07/06 07:03:42.535, True, 0.663, 0.161669
2023/07/06 07:03:43.039, True, 0.664, 0.161288
2023/07/06 07:03:43.535, True, 0.673, 0.162966
2023/07/06 07:03:44.039, True, 0.663, 0.160906
2023/07/06 07:03:44.535, True, 0.674, 0.161593
2023/07/06 07:03:45.039, True, 0.663, 0.161059
2023/07/06 07:03:45.543, True, 0.995, 0.160678
2023/07/06 07:03:46.039, True, 0.674, 0.159838
2023/07/06 07:03:46.543, True, 0.663, 0.163195
2023/07/06 07:03:47.047, True, 0.663, 0.159457
2023/07/06 07:03:47.543, True, 0.674, 0.160525
2023/07/06 07:03:48.047, True, 0.663, 0.159915
2023/07/06 07:03:48.551, True, 0.663, 0.160449
2023/07/06 07:03:49.047, True, 1.011, 0.160678
2023/07/06 07:03:49.551, True, 0.663, 0.159686
2023/07/06 07:03:50.055, True, 0.663, 0.160678
2023/07/06 07:03:50.551, True, 0.674, 0.161898
2023/07/06 07:03:51.055, True, 0.663, 0.161517
2023/07/06 07:03:51.559, True, 0.664, 0.160449
2023/07/06 07:03:52.055, True, 1.011, 0.162051
2023/07/06 07:03:52.559, True, 0.662, 0.161517
2023/07/06 07:03:53.063, True, 0.663, 0.160983
2023/07/06 07:03:53.559, True, 0.674, 0.161212
2023/07/06 07:03:54.062, True, 0.665, 0.162203
2023/07/06 07:03:54.567, True, 0.662, 0.158541
2023/07/06 07:03:55.063, True, 1.011, 0.159762
2023/07/06 07:03:55.567, True, 0.663, 0.160601
2023/07/06 07:03:56.071, True, 0.663, 0.158236
2023/07/06 07:03:56.567, True, 0.674, 0.160754
2023/07/06 07:03:57.071, True, 0.663, 0.160372
2023/07/06 07:03:57.575, True, 0.663, 0.160220
2023/07/06 07:03:58.071, True, 0.674, 0.159457
2023/07/06 07:03:58.575, True, 0.996, 0.159991
2023/07/06 07:03:59.079, True, 0.662, 0.157549
2023/07/06 07:03:59.575, True, 0.674, 0.160449
2023/07/06 07:04:00.079, True, 0.663, 0.159838
2023/07/06 07:04:00.583, True, 0.663, 0.158389
2023/07/06 07:04:01.087, True, 0.664, 0.158694
2023/07/06 07:04:01.583, True, 0.673, 0.160296
2023/07/06 07:04:02.087, True, 0.663, 0.159991
2023/07/06 07:04:02.591, True, 0.663, 0.161135
2023/07/06 07:04:03.087, True, 1.013, 0.159533
2023/07/06 07:04:03.591, True, 0.662, 0.159228
2023/07/06 07:04:04.095, True, 0.663, 0.161364
2023/07/06 07:04:04.591, True, 0.674, 0.159457
2023/07/06 07:04:05.095, True, 0.663, 0.158923
2023/07/06 07:04:05.599, True, 0.663, 0.159457
2023/07/06 07:04:06.095, True, 0.674, 0.159533
2023/07/06 07:04:06.599, True, 0.664, 0.159609
2023/07/06 07:04:07.103, True, 0.663, 0.160525
2023/07/06 07:04:07.607, True, 0.664, 0.162203
2023/07/06 07:04:08.103, True, 0.673, 0.159991
2023/07/06 07:04:08.607, True, 0.663, 0.158846
2023/07/06 07:04:09.111, True, 0.663, 0.159686
2023/07/06 07:04:09.615, True, 0.995, 0.160220
2023/07/06 07:04:10.111, True, 0.674, 0.157702
2023/07/06 07:04:10.615, True, 0.663, 0.159609
2023/07/06 07:04:11.119, True, 0.664, 0.158846
2023/07/06 07:04:11.615, True, 0.673, 0.158618
2023/07/06 07:04:12.119, True, 0.997, 0.158923